EW2353 Weather Reports


Display with metric or nautical units.
time (UTC)temp
F
wind
direction
speed
MPH
gust
MPH
rain 1hr
in
rain 24hr
in
rain mn
in
humidity
%
barometer
mb
20260502170318 53 40 4.0 9.0 0.00 0.00 0.00 45 1018.5
20260502164328 53 21 2.0 8.0 0.00 0.00 0.00 55 1018.6
20260502163821 52 259 0.0 11.0 0.00 0.00 0.00 62 1018.6
20260502163314 52 43 3.0 10.0 0.00 0.00 0.00 55 1018.7
20260502162827 51 267 3.0 10.0 0.00 0.00 0.00 54 1018.6
20260502162320 51 15 1.0 9.0 0.00 0.00 0.00 59 1018.8
20260502161833 51 300 2.0 8.0 0.00 0.00 0.00 55 1018.7
20260502161325 51 37 2.0 8.0 0.00 0.00 0.00 50 1018.8
20260502160822 51 278 1.0 12.0 0.00 0.00 0.00 60 1018.8
20260502160334 50 7 6.0 12.0 0.00 0.00 0.00 53 1018.9
20260502152321 49 37 5.0 9.0 0.00 0.00 0.00 55 1018.9
20260502151813 49 335 2.0 11.0 0.00 0.00 0.00 56 1018.9
20260502151326 49 316 5.0 11.0 0.00 0.00 0.00 53 1019.0
20260502150819 49 48 4.0 12.0 0.00 0.00 0.00 55 1019.0
20260502150332 50 13 2.0 4.0 0.00 0.00 0.00 52 1018.9
20260502130343 43 32 3.0 7.0 0.00 0.01 0.00 68 1018.8
20260502123810 42 28 3.0 6.0 0.00 0.01 0.00 75 1018.7
20260502123324 41 24 3.0 6.0 0.00 0.01 0.00 76 1018.4
20260502122816 41 39 4.0 8.0 0.00 0.01 0.00 76 1018.4
20260502122349 41 24 5.0 8.0 0.00 0.01 0.00 77 1018.5
20260502121841 41 26 4.0 8.0 0.00 0.01 0.00 78 1018.5
20260502121333 40 346 4.0 7.0 0.00 0.01 0.00 81 1018.6
20260502120824 40 18 4.0 6.0 0.00 0.01 0.00 83 1018.4
20260502120317 40 37 4.0 7.0 0.00 0.01 0.00 84 1018.2
20260502115810 39 51 4.0 7.0 0.00 0.01 0.00 84 1018.2
20260502115344 39 32 4.0 7.0 0.00 0.01 0.00 84 1018.1
20260502114815 39 32 3.0 6.0 0.00 0.01 0.00 85 1018.1
20260502114312 40 51 3.0 5.0 0.00 0.01 0.00 86 1018.1
20260502113824 39 29 2.0 5.0 0.00 0.01 0.00 87 1018.0
20260502113316 38 19 1.0 3.0 0.00 0.01 0.00 90 1018.1
20260502112830 37 345 0.0 2.0 0.00 0.01 0.00 91 1018.0
20260502112322 36 359 0.0 0.0 0.00 0.01 0.00 92 1018.1
20260502111815 36 359 0.0 0.0 0.00 0.01 0.00 91 1018.1
20260502111328 36 359 0.0 0.0 0.00 0.01 0.00 91 1018.1
20260502110821 35 359 0.0 0.0 0.00 0.01 0.00 91 1018.0
20260502110317 35 359 0.0 0.0 0.00 0.01 0.00 90 1017.9
20260502105810 35 359 0.0 0.0 0.00 0.01 0.00 89 1017.9
20260502105323 35 359 0.0 0.0 0.00 0.01 0.00 88 1017.9
20260502104817 35 359 0.0 0.0 0.00 0.01 0.00 88 1017.8
20260502104349 36 359 0.0 0.0 0.00 0.01 0.00 86 1017.8
20260502103821 37 359 0.0 0.0 0.00 0.01 0.00 86 1017.7
20260502103314 37 359 0.0 0.0 0.00 0.01 0.00 86 1017.6
20260502102827 38 359 0.0 0.0 0.00 0.01 0.00 85 1017.5
20260502102324 39 359 0.0 0.0 0.00 0.01 0.00 84 1017.4
20260502101329 39 359 0.0 0.0 0.00 0.01 0.00 85 1017.4
20260502100822 39 359 0.0 0.0 0.00 0.01 0.00 84 1017.5
20260502100315 39 359 0.0 0.0 0.00 0.01 0.00 85 1017.7
20260502091325 39 15 0.0 1.0 0.00 0.01 0.00 82 1017.7
20260502090819 39 15 0.0 1.0 0.00 0.01 0.00 82 1017.8
20260502090311 38 15 0.0 2.0 0.00 0.01 0.00 83 1017.9
20260502071322 39 3 0.0 1.0 0.00 0.01 0.00 83 1017.7
20260502070815 39 15 0.0 1.0 0.00 0.01 0.00 84 1017.7
20260502070328 38 348 0.0 1.0 0.00 0.01 0.00 85 1017.6
20260502065820 38 50 0.0 1.0 0.00 0.01 0.00 85 1017.5
20260502065313 39 50 0.0 1.0 0.00 0.01 0.00 85 1017.6
20260502064810 39 50 0.0 1.0 0.00 0.01 0.00 85 1017.6
20260502064344 39 50 0.0 1.0 0.00 0.01 0.00 84 1017.7
20260502063815 40 50 0.0 1.0 0.00 0.01 0.00 83 1017.5
20260502063328 40 50 0.0 1.0 0.00 0.01 0.00 83 1017.8
20260502062821 40 50 0.0 1.0 0.00 0.01 0.00 83 1017.8
20260502062314 41 50 0.0 1.0 0.00 0.01 0.00 82 1017.9
20260502061826 41 50 0.0 1.0 0.00 0.01 0.00 81 1017.9
20260502061319 42 50 0.0 2.0 0.00 0.01 0.00 80 1017.9
20260502060833 42 50 1.0 4.0 0.00 0.01 0.00 78 1018.0
20260502060344 42 34 1.0 4.0 0.00 0.01 0.00 77 1018.1
20260502055820 42 23 1.0 5.0 0.00 0.01 0.00 78 1018.2
20260502055312 43 356 2.0 5.0 0.00 0.01 0.00 77 1018.2
20260502054826 42 29 1.0 5.0 0.00 0.01 0.00 78 1018.2
20260502054318 42 19 2.0 4.0 0.00 0.01 0.00 80 1018.1
20260502053811 42 347 1.0 3.0 0.00 0.01 0.00 81 1018.2
20260502053324 42 2 1.0 3.0 0.00 0.01 0.00 81 1018.1
20260502052817 43 27 0.0 3.0 0.00 0.01 0.00 81 1018.1
20260502052310 43 19 1.0 5.0 0.00 0.01 0.00 81 1018.1
20260502051826 43 328 1.0 5.0 0.00 0.01 0.00 81 1018.0
20260502051320 43 18 0.0 4.0 0.00 0.01 0.00 81 1018.0
20260502050812 43 34 1.0 4.0 0.00 0.01 0.00 82 1018.1
20260502050346 43 15 0.0 5.0 0.00 0.01 0.00 82 1018.1
20260502045817 42 357 1.0 5.0 0.00 0.01 0.00 83 1018.1
20260502045310 42 19 1.0 3.0 0.00 0.01 0.00 84 1018.2
20260502044823 42 345 1.0 3.0 0.00 0.01 0.00 84 1018.1
20260502044315 41 4 0.0 2.0 0.00 0.01 0.00 86 1018.2
20260502043812 41 356 0.0 2.0 0.00 0.01 0.00 87 1018.1
20260502043326 40 350 0.0 2.0 0.00 0.01 0.00 88 1018.2
20260502042818 40 356 0.0 1.0 0.00 0.01 0.00 90 1018.1
20260502042311 39 356 0.0 1.0 0.00 0.01 0.00 91 1018.1
20260502041824 38 356 0.0 1.0 0.00 0.01 0.00 92 1018.1
20260502041317 37 357 0.0 1.0 0.00 0.01 0.00 93 1018.1
20260502040830 37 357 0.0 1.0 0.00 0.01 0.00 91 1018.1
20260502040322 37 357 0.0 1.0 0.00 0.01 0.00 91 1018.1
20260502035819 37 357 0.0 0.0 0.00 0.01 0.00 89 1018.1
20260502035311 37 357 0.0 0.0 0.00 0.01 0.00 89 1018.1
20260502034845 38 357 0.0 0.0 0.00 0.01 0.01 89 1018.1
20260502034316 38 357 0.0 0.0 0.00 0.01 0.01 88 1018.1
20260502033828 39 357 0.0 0.0 0.00 0.01 0.01 88 1018.2
20260502033321 39 357 0.0 0.0 0.00 0.01 0.01 88 1018.1
20260502032813 39 357 0.0 0.0 0.00 0.01 0.01 86 1018.1
20260502032327 40 357 0.0 0.0 0.00 0.01 0.01 86 1018.1
20260502031819 40 357 0.0 0.0 0.00 0.01 0.01 84 1018.2
20260502031337 41 357 0.0 0.0 0.00 0.01 0.01 83 1018.2
20260502030848 41 357 0.0 1.0 0.00 0.01 0.01 83 1018.1
20260502030320 42 357 0.0 1.0 0.00 0.01 0.01 83 1018.1
20260502025833 42 357 0.0 0.0 0.00 0.01 0.01 82 1018.1
20260502025345 43 357 0.0 0.0 0.00 0.01 0.01 80 1018.0
20260502024817 43 357 0.0 0.0 0.00 0.01 0.01 79 1018.0
20260502024329 44 357 0.0 3.0 0.00 0.01 0.01 78 1017.9
20260502023822 44 357 0.0 3.0 0.00 0.01 0.01 78 1017.8
20260502023314 44 349 0.0 3.0 0.00 0.01 0.01 77 1017.9
20260502022847 44 349 0.0 3.0 0.00 0.01 0.01 77 1018.0
20260502022318 44 335 0.0 3.0 0.00 0.01 0.01 77 1018.0
20260502021836 45 333 1.0 4.0 0.00 0.01 0.01 77 1018.0
20260502021327 45 15 1.0 4.0 0.00 0.01 0.01 77 1018.0
20260502020820 44 349 1.0 3.0 0.00 0.01 0.01 77 1017.9
20260502020313 45 349 0.0 1.0 0.00 0.01 0.01 77 1017.8
20260502015826 45 349 0.0 1.0 0.00 0.01 0.01 76 1017.7
20260502015319 45 342 0.0 3.0 0.00 0.01 0.01 75 1017.5
20260502014812 46 2 1.0 7.0 0.00 0.01 0.01 75 1017.5
20260502014324 46 10 2.0 7.0 0.00 0.01 0.01 75 1017.4
20260502013821 45 25 2.0 6.0 0.00 0.01 0.01 76 1017.2
20260502013334 45 330 1.0 4.0 0.00 0.01 0.01 79 1017.1
20260502012846 45 354 0.0 1.0 0.00 0.01 0.01 78 1017.1
20260502012338 46 354 0.0 1.0 0.00 0.01 0.01 76 1017.1
20260502011830 46 354 0.0 1.0 0.00 0.01 0.01 76 1017.0
20260502011322 46 349 0.0 3.0 0.00 0.01 0.01 75 1016.8
20260502010815 46 349 1.0 3.0 0.00 0.01 0.01 74 1016.6
20260502010348 46 2 0.0 2.0 0.00 0.01 0.01 74 1016.5
20260502005820 46 12 1.0 3.0 0.00 0.01 0.01 73 1016.5
20260502005313 47 331 0.0 3.0 0.00 0.01 0.01 72 1016.4
20260502004810 47 4 0.0 4.0 0.00 0.01 0.01 72 1016.4
20260502004323 47 351 1.0 4.0 0.00 0.01 0.01 72 1016.2
20260502003816 48 1 1.0 3.0 0.00 0.01 0.01 71 1016.2
20260502003329 48 1 0.0 2.0 0.00 0.01 0.01 70 1016.0
20260502002841 48 348 0.0 3.0 0.00 0.01 0.01 69 1015.8
20260502002333 49 345 1.0 4.0 0.00 0.01 0.01 68 1015.8
20260502001825 49 347 1.0 4.0 0.00 0.01 0.01 68 1015.9
20260502001318 49 341 1.0 6.0 0.00 0.01 0.01 67 1015.8
20260502000810 49 13 1.0 6.0 0.00 0.01 0.01 66 1015.8
20260502000325 50 330 1.0 5.0 0.00 0.01 0.01 66 1015.8
20260501235820 50 357 1.0 4.0 0.00 0.01 0.01 65 1015.8
20260501235329 51 1 1.0 5.0 0.00 0.01 0.01 64 1015.8
20260501234822 52 6 1.0 5.0 0.00 0.01 0.01 62 1015.9
20260501234315 52 324 1.0 7.0 0.00 0.01 0.01 60 1015.9
20260501233848 52 6 1.0 7.0 0.00 0.01 0.01 60 1015.9
20260501233319 52 359 1.0 6.0 0.00 0.01 0.01 60 1015.8
20260501232830 52 345 2.0 7.0 0.00 0.01 0.01 60 1015.8
20260501232322 53 36 3.0 7.0 0.00 0.01 0.01 58 1015.7
20260501231819 54 356 2.0 6.0 0.00 0.01 0.01 57 1015.6
20260501231312 54 15 1.0 6.0 0.00 0.01 0.01 57 1015.6
20260501230825 54 32 1.0 4.0 0.00 0.01 0.01 57 1015.5
20260501230318 54 334 1.0 5.0 0.00 0.01 0.01 56 1015.5
20260501225851 54 330 1.0 4.0 0.00 0.01 0.01 58 1015.7
20260501225322 54 336 0.0 5.0 0.00 0.01 0.01 59 1015.8
20260501224812 53 310 1.0 6.0 0.00 0.01 0.01 59 1015.8
20260501224346 53 18 1.0 7.0 0.00 0.01 0.01 59 1015.7
20260501223817 53 339 2.0 8.0 0.00 0.01 0.01 60 1015.7
20260501223350 53 8 2.0 8.0 0.00 0.01 0.01 60 1015.7
20260501222826 53 316 2.0 6.0 0.00 0.01 0.01 59 1015.7
20260501222318 54 359 2.0 11.0 0.00 0.01 0.01 60 1015.8
20260501221831 54 38 3.0 11.0 0.00 0.01 0.01 59 1015.8
20260501221323 53 20 5.0 11.0 0.00 0.01 0.01 58 1015.7
20260501220836 53 255 1.0 11.0 0.00 0.01 0.01 61 1015.8
20260501220329 54 332 6.0 10.0 0.00 0.01 0.01 57 1015.7
20260501215821 54 91 3.0 10.0 0.00 0.01 0.01 61 1015.7
20260501215334 53 340 4.0 11.0 0.00 0.01 0.01 60 1015.7
20260501214846 53 6 1.0 11.0 0.00 0.01 0.01 61 1015.8
20260501214317 53 345 3.0 8.0 0.00 0.01 0.01 64 1015.6
20260501213851 53 132 0.0 10.0 0.00 0.01 0.01 62 1015.8
20260501213326 53 339 2.0 10.0 0.00 0.01 0.01 58 1015.9
20260501212819 54 24 2.0 8.0 0.00 0.01 0.01 58 1015.8
20260501212312 54 345 2.0 7.0 0.00 0.01 0.01 60 1015.8
20260501211825 54 341 1.0 9.0 0.00 0.01 0.01 62 1015.8
20260501211318 54 263 2.0 9.0 0.00 0.01 0.01 60 1015.8
20260501210810 54 288 1.0 13.0 0.00 0.01 0.01 65 1015.7
20260501210323 53 338 5.0 13.0 0.00 0.01 0.01 60 1015.6
20260501205816 53 18 3.0 11.0 0.00 0.01 0.01 61 1015.8
20260501205310 53 341 2.0 11.0 0.00 0.01 0.01 64 1015.8
20260501204843 54 358 5.0 9.0 0.00 0.01 0.01 61 1015.8
20260501204314 54 348 3.0 9.0 0.00 0.01 0.01 65 1015.8
20260501203822 53 21 3.0 9.0 0.00 0.01 0.01 65 1015.8
20260501203312 53 278 2.0 9.0 0.00 0.01 0.01 63 1015.9
20260501202825 53 11 4.0 11.0 0.00 0.01 0.01 62 1015.9
20260501202350 54 20 1.0 12.0 0.00 0.01 0.01 66 1015.8
20260501201820 54 13 6.0 12.0 0.00 0.01 0.01 63 1015.8
20260501201313 54 12 1.0 8.0 0.00 0.01 0.01 65 1015.9
20260501200825 53 11 0.0 8.0 0.00 0.01 0.01 70 1015.8
20260501200318 53 317 1.0 10.0 0.00 0.01 0.01 66 1015.8
20260501195815 53 341 4.0 10.0 0.00 0.01 0.01 69 1015.8
20260501195328 53 330 2.0 10.0 0.00 0.01 0.01 65 1016.0
20260501194821 52 280 1.0 10.0 0.00 0.01 0.01 70 1016.0
20260501194314 52 346 3.0 10.0 0.00 0.01 0.01 67 1015.9
20260501193847 52 333 5.0 10.0 0.00 0.01 0.01 66 1015.9
20260501193318 52 356 2.0 10.0 0.00 0.01 0.01 67 1015.8
20260501192811 53 23 5.0 10.0 0.00 0.01 0.01 65 1015.7
20260501192324 54 321 2.0 11.0 0.00 0.01 0.01 69 1015.8
20260501191821 54 215 5.0 11.0 0.00 0.01 0.01 64 1015.7
20260501191314 53 131 1.0 9.0 0.00 0.01 0.01 72 1015.8
20260501190827 53 233 2.0 9.0 0.00 0.01 0.01 69 1015.9
20260501190319 53 300 1.0 6.0 0.00 0.01 0.01 70 1015.7
20260501185812 53 224 0.0 8.0 0.00 0.01 0.01 72 1015.7
20260501185345 53 278 1.0 8.0 0.00 0.01 0.01 68 1015.7
20260501184817 53 289 0.0 10.0 0.00 0.01 0.01 70 1015.8
20260501184310 52 248 2.0 12.0 0.00 0.01 0.01 69 1015.7
20260501183843 53 287 2.0 8.0 0.00 0.01 0.01 68 1015.7
20260501183335 53 202 1.0 10.0 0.00 0.01 0.01 70 1015.8
20260501182810 54 358 2.0 10.0 0.00 0.01 0.01 68 1015.7
20260501182323 54 263 1.0 10.0 0.00 0.01 0.01 71 1015.6
20260501181816 54 34 2.0 10.0 0.00 0.01 0.01 70 1015.6
20260501181349 54 340 2.0 10.0 0.00 0.01 0.01 74 1015.5
20260501180821 54 191 1.0 7.0 0.00 0.01 0.01 71 1015.5
20260501180314 54 252 1.0 11.0 0.00 0.01 0.01 68 1015.4
20260501175827 54 276 1.0 12.0 0.00 0.01 0.01 72 1015.4